Погода в Баканасе

Погода в Баканасе : погода сейчас, прогноз погоды и архив. Всё, что Вы хотите узнать о погоде в Баканасе!

Хотите узнать прогноз погоды в Баканасе? Тогда Вам сюда: Погода в Баканасе

Поиск расширенной информации на нашем сайте:

Другие новости

Новости СМИ2

Главная страница сайта

Новости сайта

03.07.2017

Напоминаем, что на нашем специализированном сайте Метеоцентр.Азия вы можете получить высокодетализированные автоматические прогнозы погоды по пунктам России, СНГ и мира в авиационном формате (включающие направление и скорость ветра, видимость, явления погоды, количество и форму облачности, нижнюю и верхнюю границу облачности).

Рекомендуем: hex коды Bram Stoker's Dracula

Погода в Баканасе - сегодня

Время (UTC), дата Ветер
(°,м/с) 
Видим.   Явления Облачность Т
(°С)
Тd
(°С)
f(%) Тe
(°С)
Pmin
(гПа)
dP
(гПа)
Po
(мм)
O2
(г/м3)
Тmin Tmax R s Состояние
почвы
00 24.05.18 тихо () {24}  20000 м    ясно 
+2.8 -0.7 78 +3  1030.2  1.9  736  294           
03 24.05.18 110 (В) 20000 м    ясно 
+10.2 -1.9 43 +10  1030.2  1.2  737  286           
06 24.05.18 270 (З) 20000 м    ясно 
+14.4 -2.1 32 +15  1029.3  -0.2  737  282  +2.7         
09 24.05.18 320 (СЗ) 20000 м    1/0 верхняя 
[Ci sp]
+16.8 -3.6 24 +17  1027.6  -1.2  736  280           
12 24.05.18 110 (В) 20000 м    1/0 верхняя 
[Ci sp]
+18.1 -4.7 21 +19  1026.3  -1.1  735  278           
15 24.05.18 040 (СВ) н/о    3/0 верхняя 
[Ci sp]
+14.6 -1.4 33 +15  1025.9  -0.9  734  281    +19.5       
18 24.05.18 130 (ЮВ) н/о    ясно 
+11.8 -1 41 +12  1025.2  -1.1  734  283    +19.5       
21 24.05.18 140 (ЮВ) н/о    1/0 верхняя 
[Ci sp]
+8.2 -0.4 55 +9  1024.5  -1.3  733  287           
00 25.05.18 170 (Ю) 3{08}  20000 м    3/0 верхняя 
[Ci sp]
+6.1 +0.8 69 +5  1024.3  -0.5  732  288           
03 25.05.18 080 (В) 20000 м    1/0 верхняя 
[Ci sp]
+17.1 -1.6 28 +17  1022.8  0.4  733  278           
06 25.05.18 050 (СВ) 20000 м    4/0 верхняя 
[Ci sp]
+22 -8 13 +22  1019.9  -2.1  731  273  +4.6         
09 25.05.18 030 (СВ) 20000 м    3/0 верхняя 
[Ci sp]
+25.9 -7.6 10 +26  1017.4  -1.9  730  269           
12 25.05.18 030 (СВ) 20000 м    ясно 
+26.8 -5.8 11 +27  1016.2  -1  729  268           
15 25.05.18 040 (СВ) н/о    ясно 
+21.3 -2.6 20 +21  1016.7  -0.2  729  273    +27.5       
18 25.05.18 090 (В) н/о    ясно 
+15.3 -2.3 30 +16  1017.1  -0.6  728  278    +27.5       
21 25.05.18 тихо ()   н/о    ясно 
+11.7 +0.6 46 +12  1016  -1.6  727  281           
00 26.05.18 050 (СВ) 2{11}  20000 м    ясно 
+10.4 +0.2 49 +11  1015.4  -0.8  726  282           
03 26.05.18 100 (В) 20000 м    ясно 
+19.4 +3.3 34 +20  1013.5  -0.4  726  273           
06 26.05.18 060 (СВ) 20000 м    ясно 
+27.9 -2 14 +28  1010.2  -1.9  725  265  +8.3         
09 26.05.18 060 (СВ) 20000 м    ясно 
+30.8 -1.5 12 +31  1007.5  -2.2  723  262           
12 26.05.18 240 (ЮЗ) 20000 м    ясно 
+32.2 +1.7 14 +32  1005.9  -1.3  722  260           
15 26.05.18 тихо ()   н/о    3/0 верхняя 
[Ci sp]
+24.8 +5.8 29 +25  1006.4  -0.5  722  266    +32.4       
18 26.05.18 060 (СВ) н/о    ясно 
+19.5 +3.8 35 +20  1006.5  -0.8  721  271    +32.4       
21 26.05.18 140 (ЮВ) н/о    ясно 
+16.5 +4.4 45 +17  1005.9  -1  720  273           
00 27.05.18 140 (ЮВ) 3{09}  20000 м    ясно 
+13.4 +6 61 +13  1005.7  -0.6  720  275           
Время (UTC), дата Ветер
(°,м/с) 
Видим.   Явления Облачность Т
(°С)
Тd
(°С)
f(%) Тe
(°С)
Pmin
(гПа)
dP
(гПа)
Po
(мм)
O2
(г/м3)
Тmin Tmax R s Состояние
почвы

Для получения пояснительной информации подведите курсор к названию столбца.

ПОГОДА в Баканасе - архив

Всё, что Вы хотите узнать о погоде в Баканасе - удобно и подробно!

Выберите нужную дату (начиная с 1 января 2015* года) и нажмите кнопку "Найти".
Будут отображены архивные сводки погоды по пункту Баканас, начиная с указанной даты.


Отображать данные в формате CSV (для использования в таблицах Excel)


Внимание! Наш архив погоды предназначен исключительно для личного некоммерческого использования в познавательных целях. Если Вам необходимы официальные справки о состоянии погоды (для производственных, юридических, коммерческих и т.п. целей), обращайтесь в органы Росгидромета.

*Примечание: данная дата относится к архиву по метеостанциям СССР (Россия, СНГ, Балтия).
Архив по метеостанциям Зарубежной Европы и Азии (кроме Китая) хранится 10 дней, по другим регионам земного шара (Китай, Африка, Америка, Австралия, Океания) - 1 день.

Баканас - район местоположения метеостанции


Название, широта, долгота, высота метеостанции:
Баканас 44.8°ш. 76.3°д. 396 м над ур. моря [Казахстан]

Дополнительная информация

В oтличие oт бoльшинства пoгoдных сайтoв мы публикуем пoдрoбную метеoинфoрмацию в детальнoм прoфессиoнальнoм фoрмате.

Характеристики температуры и влажнoсти вoздуха измеряются на высoте 2 м в тени вдали oт зданий и деревьев.
Скoрoсть ветра измеряется на высoте 10 м (на урoвне рoста челoвека скoрoсть ветра ниже в 1.5-2 раза). Если метеoстанция нахoдится в гoрoде или в лесу, тo скoрoсть ветра занижена на 2-4 м/с пo сравнению с oткрытым местoм. Скoрoсть ветра над акватoриями крупных рек и oзёр, а также на вершинах хoлмoв на 2-5 м/с выше, чем в oбычных услoвиях.
Атмoсфернoе давление в разных тoчках местнoсти мoжет значительнo oтличаться oт давления на метеoстанции, в зависимoсти oт услoвий рельефа (при пoдъёме на 10 м давление пoнижается примернo на 1 мм рт.ст.).